Theta_e
304 298 294 298 300 299 297 295 294 299 304 302 301 301 303 301 297 297 298 296 296 304 316 320 320 324 324 322 323 324 324 324 325 324 323 323 322 322 321 322 322 322 322 320
298 293 299 301 301 300 298 294 293 299 304 302 301 299 303 303 302 300 301 301 296 298 301 311 319 320 322 322 322 323 324 325 324 326 326 325 324 324 325 324 323 322 321 320
294 296 301 300 299 297 297 295 293 295 299 302 298 296 300 304 300 300 301 302 305 302 300 301 309 318 320 321 322 322 324 324 325 325 325 319 319 317 320 321 323 322 321 321
297 300 298 298 296 298 293 301 299 298 295 291 298 289 297 301 302 303 302 303 304 306 302 301 301 309 318 320 323 323 323 324 324 325 323 322 322 321 322 323 325 323 323 322
293 296 296 296 297 300 296 300 298 297 295 292 289 286 292 298 296 300 301 303 306 307 306 301 301 305 314 319 321 322 322 323 324 324 324 322 321 322 322 322 321 322 323 323
296 300 300 299 301 301 302 297 296 295 292 285 291 288 290 291 292 297 300 301 303 305 304 304 303 303 309 315 319 321 322 321 323 323 324 322 321 321 319 319 320 321 322 322
293 294 298 300 296 300 299 294 284 282 282 283 289 288 292 295 294 295 297 299 297 299 300 302 300 301 307 312 317 320 321 320 322 322 322 322 322 321 320 319 320 320 320 321
287 284 294 299 295 293 295 294 287 280 279 281 285 284 289 297 300 303 301 301 296 295 296 299 301 300 305 310 315 318 320 321 321 321 322 323 322 322 322 321 321 321 321 321
287 287 297 298 297 298 294 290 293 285 277 277 282 284 288 293 293 294 293 296 297 297 294 294 297 298 299 308 312 316 318 320 321 322 322 322 323 322 322 322 322 322 322 322
293 286 293 295 298 298 295 296 287 286 278 275 279 279 285 287 293 300 293 291 293 294 294 293 293 294 297 304 310 314 317 318 320 321 323 323 323 323 324 323 322 322 322 319
295 291 288 293 292 292 292 290 292 290 285 281 275 281 287 293 293 291 293 293 293 292 292 292 292 292 293 296 304 308 310 312 314 317 320 321 322 323 323 323 323 322 321 320
296 289 284 288 293 297 296 293 293 287 283 281 280 283 289 290 290 289 289 290 291 291 292 291 291 291 292 293 295 304 306 309 313 312 312 314 315 316 320 321 323 322 321 320
295 286 282 283 289 291 290 294 295 292 286 283 282 285 291 286 286 288 289 290 290 287 288 291 291 291 292 293 293 294 298 303 304 305 308 309 311 311 315 319 320 316 321 320
298 287 283 282 282 289 288 291 293 292 286 286 286 287 290 289 287 288 289 289 289 289 290 291 292 292 293 293 294 294 294 295 296 297 298 300 302 304 307 309 310 312 316 318
294 283 286 287 287 287 289 290 292 289 291 287 290 290 293 295 294 290 288 289 289 289 290 291 291 292 293 294 294 296 296 297 297 297 296 297 297 298 300 302 304 306 307 310
290 283 286 284 288 287 282 289 292 292 292 292 292 291 294 293 292 286 289 288 289 290 290 291 292 292 293 293 294 296 297 297 298 298 297 298 298 298 299 300 299 299 300 303
287 284 283 280 285 286 282 286 289 292 293 293 288 294 293 291 289 291 290 289 290 291 291 292 292 292 293 293 295 295 297 298 297 297 297 296 296 296 296 296 295 294 294 297
287 286 285 282 281 277 286 290 291 291 293 295 295 296 297 297 296 294 292 291 291 290 290 291 291 292 292 292 293 295 296 297 296 296 295 294 293 293 292 291 291 290 290 293
289 286 282 277 279 282 286 286 287 288 289 295 294 296 297 295 293 295 295 291 291 291 291 291 291 291 290 291 291 293 293 294 294 293 292 292 291 289 288 288 288 286 287 286
287 287 284 278 269 276 284 288 291 291 284 295 296 296 296 295 290 295 299 298 294 292 291 291 290 290 290 287 289 291 290 291 291 290 290 290 287 289 290 289 290 286 287 287
281 282 279 280 278 277 286 287 292 281 285 292 296 296 296 294 297 301 299 296 291 289 288 288 288 287 285 285 287 288 287 287 284 286 285 284 286 287 289 288 286 287 286 286
280 279 279 281 278 277 286 286 287 291 292 291 291 295 295 297 299 299 297 290 287 287 285 284 283 282 282 283 286 285 284 283 285 286 286 286 287 286 286 288 286 286 287 287
282 284 281 283 283 287 286 287 288 287 287 287 288 289 291 291 292 290 288 287 286 284 283 282 281 280 280 281 283 282 283 284 283 286 286 286 286 285 286 287 286 286 286 286
282 286 282 282 286 286 288 288 285 285 285 287 287 287 288 288 288 286 284 283 283 282 280 280 280 279 278 279 280 281 282 283 286 285 285 284 286 285 286 286 286 286 286 285
282 281 280 282 283 284 283 282 281 283 285 285 285 284 284 286 284 284 282 281 280 279 279 279 278 277 276 276 276 277 280 284 284 284 283 284 285 285 284 284 285 285 284 287
275 278 281 280 273 273 280 278 280 279 281 282 282 284 283 284 283 282 280 279 278 277 276 275 274 274 273 273 273 274 277 284 284 282 282 282 283 282 283 284 284 288 288 289
Wind_Speed
15 8 19 26 16 2 6 9 10 6 5 6 12 17 19 16 10 10 10 11 12 15 18 13 15 15 12 12 14 16 16 15 12 9 9 8 9 6 6 6 9 9 8 9
5 18 16 8 9 12 5 10 12 4 4 3 9 18 20 20 17 19 18 13 12 16 12 13 14 14 17 15 19 18 18 17 14 11 10 8 8 7 8 7 7 10 10 9
22 4 13 11 14 16 16 18 7 5 2 4 4 17 22 21 10 17 16 14 16 18 16 16 14 18 18 20 19 19 20 17 15 15 9 3 2 2 4 6 8 9 11 11
9 11 17 15 14 17 19 9 5 3 3 5 6 12 19 13 22 23 19 19 21 20 14 16 15 16 18 20 17 19 17 17 15 15 13 16 14 14 10 10 10 8 12 13
11 13 18 18 20 17 8 9 11 7 6 3 4 5 7 9 14 16 19 21 22 24 19 17 18 19 16 18 17 17 17 17 16 17 18 14 13 10 7 8 10 12 11 13
8 3 12 14 12 19 8 5 3 3 2 8 8 8 11 8 8 10 13 15 21 20 14 16 15 11 13 12 14 14 17 18 18 17 18 17 17 13 9 9 9 9 9 9
11 10 2 3 7 6 9 9 3 5 5 11 8 12 21 5 5 7 10 13 10 10 10 13 13 13 13 13 16 15 17 17 18 19 18 18 18 16 15 13 10 10 8 9
11 9 19 11 7 9 17 11 4 5 5 2 1 13 9 12 17 14 10 16 7 9 9 11 14 13 14 15 16 17 18 18 18 19 18 18 16 12 12 12 11 10 10 9
8 7 14 12 6 11 7 8 2 3 2 2 6 10 6 14 11 12 12 9 13 11 9 11 9 10 10 12 16 18 18 18 17 18 17 16 15 16 15 15 11 10 11 8
6 4 13 11 5 5 10 11 5 3 4 6 6 7 10 4 14 19 8 11 12 10 10 9 8 9 9 10 11 13 15 17 15 18 16 14 16 16 15 11 13 13 10 8
3 5 3 11 16 16 7 9 7 6 5 7 3 10 10 21 15 7 11 8 11 10 10 9 7 5 6 5 7 8 8 10 10 12 13 13 12 13 12 12 12 12 10 10
6 2 5 15 2 13 17 11 13 9 11 4 2 12 4 9 5 6 12 9 8 8 7 8 7 5 4 6 7 8 7 9 11 8 7 8 7 8 11 12 14 12 13 10
11 4 4 5 2 2 8 15 19 9 3 12 9 12 5 4 4 8 9 9 5 2 3 4 4 5 6 6 7 8 7 7 7 7 8 7 9 8 11 12 11 10 12 12
12 5 7 11 3 8 14 19 20 19 8 10 17 9 7 8 5 7 6 4 5 5 6 5 4 6 6 6 6 6 6 6 7 7 7 8 8 8 7 6 6 7 10 11
5 4 5 9 4 3 8 21 23 22 23 12 22 20 15 17 11 6 5 7 5 7 8 8 7 6 6 5 5 5 5 7 6 7 7 7 6 6 6 7 7 6 6 6
3 2 1 3 12 6 4 11 20 22 22 23 30 34 10 9 7 6 8 7 8 8 9 9 7 6 7 7 7 7 6 6 5 5 6 5 5 4 5 5 5 5 5 5
8 6 4 5 6 5 9 24 18 22 21 28 28 40 5 9 9 10 10 9 10 10 9 9 8 8 6 6 5 7 6 5 6 5 4 4 4 5 6 5 5 5 4 2
5 5 4 3 2 10 8 9 22 22 22 27 31 30 15 18 11 9 8 8 10 9 9 9 6 5 6 4 5 3 4 5 6 5 4 4 5 5 3 3 3 3 4 4
6 3 2 4 4 8 11 8 12 15 27 22 23 31 28 8 2 14 9 8 11 10 9 5 5 6 4 3 1 4 4 5 4 3 4 5 5 4 5 5 4 3 3 2
10 7 3 1 5 7 12 6 9 5 20 24 22 28 24 8 11 21 15 14 13 10 6 6 5 3 5 3 2 5 5 4 5 4 4 4 4 6 6 6 6 3 2 3
9 9 18 14 11 11 7 4 7 11 18 4 22 24 18 13 22 32 8 10 6 6 8 7 6 7 4 1 3 6 6 5 3 4 2 2 4 4 4 3 1 3 3 3
10 8 7 9 7 19 7 5 20 18 12 11 2 11 15 19 23 23 12 7 8 8 7 6 7 6 3 4 4 6 6 2 1 2 3 3 2 2 2 6 3 3 5 4
8 8 7 10 11 5 7 5 3 5 4 6 7 5 5 7 11 6 6 8 7 8 6 4 6 7 6 7 5 6 3 2 3 3 3 3 3 3 2 5 4 3 3 3
5 4 5 3 7 7 6 7 7 7 6 11 7 7 5 5 5 4 6 6 6 5 6 5 7 7 5 4 5 3 1 1 4 5 4 3 4 4 4 3 3 3 3 3
3 5 4 8 3 7 7 12 14 15 10 10 11 6 6 3 3 6 5 7 6 7 6 6 7 7 5 3 4 4 4 2 5 5 5 4 3 4 5 5 3 2 1 2
4 5 6 4 6 7 6 13 17 15 12 12 12 11 6 6 2 7 7 7 6 7 6 7 7 7 5 5 5 5 4 4 6 6 4 3 4 4 4 5 6 17 15 16
Wind_Direction
184 200 208 206 212 92 178 204 227 237 161 158 239 256 259 260 254 264 244 230 225 225 228 221 217 213 202 197 193 196 193 193 183 184 190 199 204 199 205 203 203 201 200 197
183 218 218 203 201 226 218 213 226 317 160 198 238 257 257 256 245 245 242 238 224 239 227 224 210 202 207 197 200 201 202 197 193 196 197 202 198 208 207 205 206 203 196 196
205 203 199 202 188 207 228 225 199 218 341 257 335 264 262 254 229 237 241 239 237 224 228 224 208 204 201 206 204 202 203 199 195 195 186 140 127 111 190 202 211 207 199 201
241 192 197 201 208 197 230 191 211 182 220 239 164 288 255 250 239 240 239 237 237 236 222 223 216 212 206 210 203 205 200 197 195 186 188 198 208 214 215 215 214 203 203 209
200 182 201 194 206 194 227 160 198 227 274 266 173 277 270 236 229 237 237 238 238 233 223 211 212 214 207 207 201 196 192 194 190 190 197 198 207 210 204 207 206 208 208 211
204 250 199 204 185 188 127 82 78 114 148 245 189 195 253 227 210 234 241 238 235 240 226 222 216 208 210 201 198 192 190 195 193 193 199 197 205 204 198 201 207 209 212 211
175 186 186 180 151 173 155 137 201 182 195 242 184 197 245 252 236 249 260 259 234 232 222 220 207 199 201 187 193 193 193 194 192 194 198 201 206 203 205 203 208 206 209 213
176 185 177 187 197 187 196 183 195 221 198 196 248 227 245 234 242 262 257 252 267 255 229 222 217 206 202 196 192 191 194 196 190 194 199 205 204 204 209 206 207 215 215 216
175 224 175 186 174 159 165 201 180 89 147 354 222 285 284 270 244 253 233 223 242 242 244 237 220 210 200 192 196 194 196 202 194 193 198 202 203 205 209 210 205 209 215 211
184 243 188 186 213 237 191 138 157 153 214 239 261 277 240 304 254 250 250 213 240 244 250 246 225 215 208 205 201 200 201 199 194 196 197 200 203 206 212 203 209 211 213 193
166 207 159 148 203 183 159 181 201 167 189 221 264 256 208 215 238 263 274 259 238 217 225 231 239 232 226 197 184 186 183 182 189 192 198 202 205 206 205 210 212 210 202 192
187 168 187 209 134 218 217 207 191 200 218 231 212 258 234 216 241 267 271 275 270 252 238 232 228 227 215 205 185 189 184 184 193 183 173 188 188 190 199 206 212 203 203 193
166 183 153 153 298 313 203 210 215 212 38 211 206 248 295 202 229 236 246 270 248 269 230 230 204 208 204 204 195 189 190 197 179 173 184 194 202 192 206 213 209 193 202 203
158 174 218 230 135 135 207 207 213 221 209 225 224 242 254 306 296 295 278 264 275 243 218 234 232 213 213 204 192 178 182 182 178 182 192 205 210 210 214 205 195 192 202 208
181 193 208 259 280 345 211 214 215 218 234 246 247 255 257 277 282 283 265 297 258 248 234 217 218 209 203 202 197 190 194 185 178 180 192 211 215 212 209 209 208 208 205 210
136 212 105 251 263 231 263 240 210 213 229 243 262 267 265 229 240 244 246 252 258 253 249 240 214 209 209 208 205 197 200 194 172 188 205 194 193 197 199 202 190 173 185 192
163 158 140 256 220 235 245 232 219 216 221 222 235 239 151 229 230 229 238 214 231 236 233 232 211 196 206 219 209 205 195 174 180 183 201 200 182 201 208 191 176 182 181 155
164 171 177 267 132 222 245 177 212 228 231 229 242 247 241 243 249 256 235 229 229 231 232 232 203 207 202 204 206 184 163 184 171 172 185 206 191 204 207 173 173 151 137 166
168 143 209 204 187 317 299 227 193 194 248 238 243 244 244 240 341 265 249 212 219 215 225 240 187 203 160 134 52 168 163 172 148 180 197 206 190 187 170 164 164 139 123 125
187 184 197 142 196 215 240 209 149 96 280 224 223 241 236 194 234 256 226 223 234 202 208 183 131 73 108 39 358 143 147 156 175 178 207 208 182 199 186 174 175 143 126 151
190 205 219 229 244 275 230 127 121 145 242 79 220 236 235 203 224 243 224 220 196 170 157 137 132 136 120 335 196 141 133 130 71 40 43 141 166 167 160 145 88 118 112 111
173 178 199 217 235 256 134 126 170 224 290 324 259 227 219 221 233 243 233 174 161 151 133 126 122 109 55 16 90 101 95 42 58 193 163 116 158 138 168 152 140 132 143 153
208 199 186 193 211 289 235 206 343 2 304 323 319 319 243 233 243 211 169 149 150 137 116 88 108 100 46 30 43 99 116 160 140 127 89 84 89 88 109 123 126 89 115 137
247 208 228 70 250 244 286 311 31 8 333 318 324 314 308 240 177 152 123 116 111 101 98 92 93 88 82 42 61 79 70 49 117 107 102 95 92 86 69 62 74 98 146 141
203 11 262 259 338 318 87 22 345 342 331 343 331 334 352 310 150 124 115 107 108 102 91 91 106 109 86 60 60 33 17 62 92 82 72 74 81 83 84 61 61 89 58 96
164 183 204 224 20 311 300 342 342 342 339 341 339 338 355 21 12 98 105 113 115 110 111 105 102 103 83 55 43 12 3 84 105 90 73 66 77 71 74 97 84 59 67 61